This demonstration page uses our WeatherBlox Daily Observations layout. Learn more.

Left ArrowRight Arrow

31.84235, -102.49876

Hourly Observations for May 20, 2017

Temp ( °F °C ) Dew Point ( °F °C ) Humidity (%) Winds ( mph kmh ) Pressure ( in mb ) Visibility ( mi km ) Precip ( " mm )
12:53 am 00:53 Clear 72 22.2 40 4.4 31 31 NNE 16 26 29.73 1007 10 16 0.00 0.00
1:53 am 01:53 Mostly Clear 68 20 56 13.3 65 65 NE 24 39 29.79 1009 10 16 0.00 0.00
2:20 am 02:20 Mostly Cloudy 67 19.4 55 12.8 66 66 NE 25 41 29.83 1010 10 16 0.00 0.00
2:32 am 02:32 Partly Cloudy 65 18.3 51 10.6 61 61 NE 18 30 29.83 1010 10 16 0.00 0.00
2:53 am 02:53 Clear 65 18.3 50 10 59 59 NE 22 35 29.78 1009 10 16 0.00 0.00
3:53 am 03:53 Mostly Clear 63 17.2 50 10 63 63 ENE 18 30 29.81 1009 10 16 0.00 0.00
4:06 am 04:06 Mostly Cloudy 63 17.2 49 9.4 60 60 NE 21 33 29.85 1011 10 16 0.00 0.00
4:40 am 04:40 Cloudy 62 16.7 47 8.3 58 58 ENE 20 31 29.88 1012 10 16 0.00 0.00
4:53 am 04:53 Mostly Cloudy 62 16.7 47 8.3 58 58 ENE 17 28 29.83 1010 10 16 0.00 0.00
5:53 am 05:53 Mostly Clear 60 15.6 43 6.1 53 53 NE 15 24 29.85 1011 10 16 0.00 0.00
6:53 am 06:53 Partly Cloudy 57 13.9 41 5 55 55 NNE 17 28 29.90 1012 10 16 0.00 0.00
7:53 am 07:53 Mostly Cloudy 57 13.9 41 5 55 55 NNE 12 19 29.94 1014 10 16 0.00 0.00
8:53 am 08:53 Cloudy 59 15 41 5 51 51 NE 12 19 29.97 1015 10 16 0.00 0.00
9:53 am 09:53 Mostly Sunny 62 16.7 41 5 46 46 NE 14 22 29.98 1015 10 16 0.00 0.00
10:53 am 10:53 Sunny 66 18.9 40 4.4 39 39 NNE 12 19 29.97 1015 10 16 0.00 0.00
11:53 am 11:53 Sunny 68 20 39 3.9 35 35 NE 13 20 29.98 1015 10 16 0.00 0.00
12:53 pm 12:53 Sunny 71 21.7 40 4.4 32 32 NE 8 13 29.96 1015 10 16 0.00 0.00
1:53 pm 13:53 Sunny 75 23.9 42 5.6 31 31 N 9 15 29.94 1014 10 16 0.00 0.00
2:53 pm 14:53 Sunny 75 23.9 42 5.6 31 31 ENE 10 17 29.93 1014 10 16 0.00 0.00
3:53 pm 15:53 Sunny 76 24.4 41 5 29 29 E 9 15 29.91 1013 10 16 0.00 0.00
4:53 pm 16:53 Sunny 79 26.1 42 5.6 27 27 VRB 7 11 29.89 1012 10 16 0.00 0.00
5:53 pm 17:53 Sunny 78 25.6 42 5.6 28 28 VRB 5 7 29.89 1012 10 16 0.00 0.00
6:53 pm 18:53 Sunny 77 25 42 5.6 29 29 ESE 6 9 29.89 1012 10 16 0.00 0.00
7:53 pm 19:53 Sunny 76 24.4 45 7.2 33 33 E 9 15 29.90 1013 10 16 0.00 0.00
8:53 pm 20:53 Clear 73 22.8 47 8.3 40 40 E 10 17 29.92 1013 10 16 0.00 0.00
9:53 pm 21:53 Clear 71 21.7 49 9.4 46 46 E 12 19 29.95 1014 10 16 0.00 0.00
10:53 pm 22:53 Clear 70 21.1 51 10.6 51 51 E 13 20 29.96 1015 10 16 0.00 0.00
11:53 pm 23:53 Clear 68 20 52 11.1 57 57 ESE 16 26 29.98 1015 10 16 0.00 0.00

Powered by AerisWeather